Flag for Venezuela Weather past 2 weeks in Caracas, Venezuela

Now
86 °F

Partly sunny.


Feels Like: 102 °F
Forecast: 66 / 73 °F
Wind: 7 mph from North

Location: Caracas / Maiquetia Aerop. Intl. Simon Bolivar

Current Time: May 30, 2015 at 12:55:08 PM

Latest Report: May 30, 2015 at 11:30 AM


Visibility: N/A

Pressure: 29.89 "Hg

Humidity: 84%

Dew point: 81 °F

Location of CaracasLocation

Historic Weather in Caracas — Graph

°F

Caracas temperature yesterday

Maximum temperature yesterday: 86 °F (at 12:30 PM)
Minimum temperature yesterday: 79 °F (at 12:30 AM)
Average temperature yesterday: 81 °F

Past Weeks' High & Low Weather Summary

 TemperatureHumidityPressure
High91 °F (May 19, 12:30 PM)94% (May 15, 8:30 PM)29.98 "Hg (May 15, 8:30 PM)
Low75 °F (May 17, 6:30 PM)48% (May 21, 5:30 PM)29.77 "Hg (May 20, 5:30 PM)
Average82 °F78%29.90 "Hg
* Reported May 15 11:30 AM — May 30 11:30 AM, Caracas, Weather by CustomWeather, © 2015

Note: Actual official high and low records may vary slightly from our data, if they occured in-between our weather recording intervals... More about our weather records

Advertising

Caracas weather history for previous 24 hours

 ConditionsComfort  
Time TempWeatherWind HumidityBarometerVisibility
11:30 AM
Sat, May 30
86 °FPartly sunny.7 mph84%29.89 "HgN/A
10:30 AM88 °FScattered clouds.7 mph79%29.92 "HgN/A
9:30 AM84 °FScattered clouds.3 mph74%29.89 "HgN/A
8:30 AM84 °FPartly sunny.3 mph84%29.89 "HgN/A
7:30 AM82 °FPassing clouds.3 mph79%29.89 "HgN/A
6:30 AM79 °FPartly sunny.No wind79%29.86 "HgN/A
5:30 AM77 °FPassing clouds.No wind83%29.86 "HgN/A
4:30 AM77 °FPassing clouds.No wind83%29.86 "HgN/A
3:30 AM75 °FPassing clouds.No wind89%29.83 "HgN/A
2:30 AM77 °FPassing clouds.No wind83%29.83 "HgN/A
1:30 AM79 °FPassing clouds.No wind79%29.83 "HgN/A
12:30 AM79 °FPassing clouds.No wind79%29.86 "HgN/A
11:30 PM
Fri, May 29
79 °FPassing clouds.No wind84%29.86 "HgN/A
10:30 PM79 °FPassing clouds.No wind84%29.86 "HgN/A
9:30 PM81 °FPassing clouds.No wind79%29.89 "HgN/A
8:30 PM81 °FPassing clouds.No wind79%29.89 "HgN/A
7:30 PM81 °FPassing clouds.No wind79%29.86 "HgN/A
6:30 PM82 °FPartly cloudy.No wind79%29.86 "HgN/A
5:30 PM84 °FBroken clouds.5 mph74%29.83 "HgN/A
4:30 PM84 °FBroken clouds.7 mph74%29.83 "HgN/A
3:30 PM86 °FBroken clouds.8 mph70%29.89 "HgN/A
2:30 PM84 °FBroken clouds.9 mph74%29.86 "HgN/A
1:30 PM86 °FBroken clouds.9 mph75%29.89 "HgN/A
12:30 PM86 °FPartly sunny.5 mph75%29.92 "HgN/A
Weather by CustomWeather, © 2015

See weather overviewHow to use our weather pages